Terminal Aerodrome Forecast
Issued by NWS Charleston, WV

Current Version | Previous Version | Graphics & Text | Print | Product List | Glossary On
Versions: 1 2 3 4 5 6 7 8 9 10 11 12 13 14 15 16 17 18 19 20 21 22 23
413
FTUS41 KRLX 011120
TAFCRW
TAF
KCRW 011120Z 0112/0212 25007KT P6SM SCT030
     FM011500 26009G15KT P6SM OVC035
     FM012300 26006KT P6SM SCT050=

USA.gov is the U.S. government's official web portal to all federal, state and local government web resources and services.